This is the latest recevied weather packets stored in our database for station/object K9MWD. If no packets are shown the sender has not sent any weather packets the latest 10 day(s).
| Time | Temp. | Humidity | Pressure | Rain* | Wind** | Luminosity | Snow |
|---|---|---|---|---|---|---|---|
| 1788550722 | 36.67° C | 45% | 1013.3 hPa | 0 mm | - | 828 W/m² | - |
| 1788550417 | 35.56° C | 45% | 1013.3 hPa | 0 mm | - | 893 W/m² | - |
| 1788550113 | 35.56° C | 45% | 1013.4 hPa | 0 mm | - | 194 W/m² | - |
| 1788549808 | 36.67° C | 43% | 1013.5 hPa | 0 mm | - | 174 W/m² | - |
| 1788549505 | 36.11° C | 44% | 1013.5 hPa | 0 mm | - | 882 W/m² | - |
| 1788549201 | 36.67° C | 43% | 1013.5 hPa | 0 mm | - | 861 W/m² | - |
| 1788548897 | 36.67° C | 44% | 1013.6 hPa | 0 mm | - | 886 W/m² | - |
| 1788548593 | 36.67° C | 44% | 1013.7 hPa | 0 mm | - | 921 W/m² | - |
| 1788548289 | 36.11° C | 45% | 1013.6 hPa | 0 mm | - | 899 W/m² | - |
| 1788547984 | 36.11° C | 44% | 1013.7 hPa | 0 mm | - | 907 W/m² | - |
| 1788547683 | 35.56° C | 46% | 1013.8 hPa | 0 mm | - | 911 W/m² | - |
| 1788547379 | 36.11° C | 45% | 1013.7 hPa | 0 mm | - | 240 W/m² | - |
| 1788547074 | 36.11° C | 45% | 1014 hPa | 0 mm | - | 911 W/m² | - |
| 1788546774 | 35° C | 46% | 1013.9 hPa | 0 mm | - | 867 W/m² | - |
| 1788546469 | 35.56° C | 46% | 1014 hPa | 0 mm | - | 874 W/m² | - |
| 1788546164 | 35.56° C | 45% | 1014.2 hPa | 0 mm | - | 872 W/m² | - |
| 1788545860 | 35° C | 45% | 1014 hPa | 0 mm | - | 853 W/m² | - |
| 1788545559 | 35° C | 45% | 1014.2 hPa | 0 mm | - | 873 W/m² | - |
| 1788545255 | 35° C | 47% | 1014.3 hPa | 0 mm | - | 873 W/m² | - |
| 1788544950 | 34.44° C | 45% | 1014.5 hPa | 0 mm | - | 856 W/m² | - |
| 1788544649 | 35° C | 48% | 1014.3 hPa | 0 mm | - | 610 W/m² | - |
| 1788544347 | 35° C | 50% | 1014.6 hPa | 0 mm | - | 849 W/m² | - |
| 1788544043 | 35° C | 49% | 1014.7 hPa | 0 mm | - | 849 W/m² | - |
| 1788543739 | 33.89° C | 52% | 1014.6 hPa | 0 mm | - | 855 W/m² | - |
| 1788543435 | 34.44° C | 52% | 1014.5 hPa | 0 mm | - | 839 W/m² | - |
* Rain latest hour (hover to see other rain measurements)
** Current wind speed in m/s (hover to see current wind gust speed)